[[{"header":{"parameterUnit":"m.s-1","parameterCategory":1,"la1":30.2991,"la2":30.254,"lo1":-89.0895,"lo2":-89.0444,"dy":0.0017,"dx":0.0017,"nx":28,"ny":28,"refTime":"2026-02-04T09:00:00:Z","depth":0,"parameterNumber":2,"parameterNumberName":"U-component_of_WINDS"},"data":[0,0,0,0,0,0,0,0,0,0,0,0,0,0,0,0,0,0,0,0,0,0,0,0,0,0,0,0,0,0,0,0,0,0,0,0,0,0,0,0,0,0,0,0,0,0,0,0,0,0,0,0,0,0,0,0,0,0,2.9227,2.9227,0,2.9238,2.9238,2.9238,2.9201,2.92,2.9199,2.9198,2.9208,2.9209,2.9211,0,0,0,0,0,0,0,0,0,0,0,0,0,2.9174,2.9175,2.9227,2.9227,2.9227,2.9238,2.9238,2.9239,2.9201,2.92,2.9199,2.9197,2.9208,2.9209,2.9211,0,0,0,0,0,0,0,0,0,0,0,0,0,2.9193,2.9176,2.9227,2.921,2.9209,2.9238,2.9238,2.9239,2.9202,2.92,2.9198,2.9197,2.9207,2.9209,2.9211,2.9257,0,0,2.9217,2.9218,0,0,0,0,0,0,0,0,2.9192,2.9195,2.9212,2.9211,2.921,2.9217,2.9223,2.9245,2.9202,2.9204,2.9198,2.9196,2.9212,2.9214,2.9219,2.9257,2.9258,2.9217,2.9218,2.9219,2.922,0,0,0,0,0,0,0,2.919,2.9194,2.9231,2.9213,2.9211,2.9202,2.9203,2.9227,2.9217,2.9204,2.9201,2.9203,2.9211,2.9218,2.9219,2.9258,2.9217,2.9219,2.922,2.9221,2.9338,2.934,0,0,0,0,0,0,2.9191,2.9193,2.9231,2.9232,2.9196,2.9205,2.9205,2.9216,2.9217,2.9216,2.9205,2.9202,2.9215,2.9217,2.922,2.9276,2.9219,2.9221,2.9222,2.9336,2.9338,2.934,0,0,0,0,0,0,2.919,2.9195,2.923,2.9212,2.9216,2.9207,2.922,2.9217,2.9224,2.9218,2.9216,2.9213,2.9214,2.9217,2.9249,2.9276,2.9222,2.9224,2.9334,2.9337,2.9339,2.9387,0,0,0,0,0,0,2.9189,2.9195,2.9212,2.9212,2.9217,2.9259,2.9221,2.9219,2.9227,2.9223,2.9225,2.9224,2.9213,2.9246,2.9251,2.9277,2.9225,2.9331,2.9335,2.9338,2.9383,2.9391,2.9398,0,0,0,0,0,2.9187,2.9223,2.9213,2.9217,2.9237,2.9261,2.9263,2.925,2.923,2.9247,2.9244,2.9224,2.9272,2.925,2.9255,2.9282,2.933,2.9334,2.9338,2.938,2.939,2.9398,0,0,0,0,0,0,2.9224,2.9223,2.9211,2.9249,2.9255,2.9254,2.9276,2.9261,2.9273,2.9269,2.9252,2.9252,2.9288,2.9288,2.9263,2.9329,2.9297,2.9303,2.9327,2.9337,2.9344,2.9344,2.9227,0,0,0,0,0,2.9237,2.9256,2.9254,2.9287,2.9292,2.9284,2.9293,2.9283,2.9289,2.9291,2.929,2.9297,2.9314,2.9325,2.934,2.9383,2.9384,2.9405,2.9412,2.9419,2.9424,2.945,2.946,2.9355,2.9355,2.9355,0,0,2.9263,2.9265,2.9278,2.9295,2.9299,2.932,2.9286,2.9308,2.9324,2.9294,2.9325,2.9325,2.9332,2.9371,2.9387,2.9372,2.9454,2.9424,2.9429,2.9431,2.9456,2.9465,2.9474,2.9358,2.9357,2.9357,0,0,2.9322,2.9325,2.9354,2.936,2.9367,2.9362,2.937,2.9372,2.9371,2.9402,2.9382,2.94,2.9429,2.9435,2.9442,2.9508,2.9491,2.9514,2.9553,2.9579,2.9587,2.9595,2.962,2.9629,2.9519,2.9519,2.9519,0,2.9354,2.9385,2.9371,2.9397,2.9406,2.9382,2.9413,2.9419,2.943,2.9438,2.942,2.9458,2.946,2.9502,2.9519,2.9524,2.9534,2.9513,2.9587,2.9594,2.9601,2.9625,2.9635,2.9522,2.9521,2.9521,2.9521,0,2.9424,2.9446,2.9469,2.9483,2.9495,2.9523,2.9515,2.9529,2.9519,2.9516,2.955,2.9552,2.9569,2.9578,2.9567,2.9619,2.961,2.959,2.9558,2.9614,2.9637,2.9646,2.9526,2.9525,2.9524,2.9523,0,0,2.9505,2.9514,2.9523,2.953,2.9538,2.9555,2.9583,2.9601,2.9614,2.9624,2.9648,2.9675,2.9658,2.9666,2.9656,2.9679,2.9735,2.9657,2.9657,2.9673,2.9795,2.9811,2.9822,2.9723,2.9725,2.9726,2.9795,0,2.9565,2.9613,2.9604,2.9652,2.9674,2.9653,2.9678,2.9686,2.9685,2.9704,2.9702,2.9723,2.9697,2.9703,2.9724,2.9723,2.9759,2.9718,2.9747,2.9748,2.9747,2.9833,2.9849,2.9914,2.9804,2.9805,2.9806,0,2.964,2.9655,2.9706,2.9714,2.9722,2.9745,2.9762,2.978,2.979,2.9788,2.9799,2.9786,2.9816,2.9784,2.9826,2.9798,2.981,2.9812,2.9814,2.9816,2.9781,2.984,2.9934,2.9944,2.982,2.9819,2.9818,0,2.9697,2.9729,2.9764,2.9771,2.9781,2.9798,2.9802,2.9811,2.9823,2.9839,2.9847,2.9865,2.9875,2.989,2.9883,2.986,2.9927,2.9894,2.9927,2.9928,2.9942,2.9942,3.0041,2.9948,2.9948,2.9948,2.9947,0,2.9765,2.9797,2.9791,2.9812,2.9849,2.9839,2.9875,2.9877,2.9886,2.9909,2.9891,2.9913,2.9902,2.9924,2.9918,2.9955,2.9959,2.9959,2.9958,2.9962,2.9962,2.9969,2.9965,2.995,2.995,2.9949,2.9949,0,2.9834,2.983,2.9868,2.9875,2.9878,2.9905,2.9911,2.9933,2.9932,2.9961,2.9967,2.9965,2.999,2.9985,3.0011,3.0008,3.0055,3.0047,3.0052,3.0051,3.0085,3.0083,3.0194,3.0209,3.0105,3.0106,3.0107,0,2.9878,2.9903,2.9914,2.9928,2.9935,2.9958,2.9972,2.9964,2.9979,2.9994,3.0014,3.0038,3.0056,3.0097,3.0098,3.012,3.0113,3.0151,3.0116,3.012,3.0116,3.0115,3.0119,3.0157,3.0159,3.016,3.016,0,2.9957,2.9956,2.9976,2.9997,3.0014,3.003,3.0044,3.0057,3.005,3.0068,3.0094,3.0109,3.0138,3.0162,3.0183,3.0188,3.0174,3.0172,3.0181,3.0185,3.0188,3.0189,3.0073,3.0169,3.0168,3.0167,3.0167,3.0167,3.0016,3.0039,3.0051,3.0075,3.0086,3.01,3.0122,3.0125,3.0146,3.017,3.0164,3.0194,3.0207,3.0233,3.0241,3.0266,3.0252,3.0264,3.0268,3.0271,3.0277,3.0184,3.0269,3.0269,3.0269,3.0268,3.0268,0,3.0097,3.0105,3.0127,3.0149,3.0169,3.0155,3.0171,3.0188,3.0215,3.0229,3.0248,3.028,3.0304,3.0309,3.0333,3.0352,3.0346,3.0358,3.0357,3.036,3.0287,3.0277,3.0363,3.0363,3.0363,3.0363,3.0363,3.0363,3.0141,3.0179,3.0179,3.0224,3.0231,3.0261,3.0272,3.0286,3.0297,3.0334,3.0355,3.0358,3.0369,3.0394,3.0417,3.0417,3.0428,3.0443,3.0442,3.0374,3.0364,3.0355,3.0346,3.0445,3.0445,3.0512,3.0513,3.0513]},{"header":{"parameterUnit":"m.s-1","parameterCategory":1,"la1":30.2991,"la2":30.254,"lo1":-89.0895,"lo2":-89.0444,"dy":0.0017,"dx":0.0017,"nx":28,"ny":28,"refTime":"2026-02-04T09:00:00:Z","depth":0,"parameterNumber":3,"parameterNumberName":"V-component_of_WINDS"},"data":[0,0,0,0,0,0,0,0,0,0,0,0,0,0,0,0,0,0,0,0,0,0,0,0,0,0,0,0,0,0,0,0,0,0,0,0,0,0,0,0,0,0,0,0,0,0,0,0,0,0,0,0,0,0,0,0,0,0,-5.472,-5.4721,0,-5.4847,-5.4849,-5.485,-5.4873,-5.4872,-5.4871,-5.487,-5.4995,-5.4999,-5.5003,0,0,0,0,0,0,0,0,0,0,0,0,0,-5.4495,-5.4499,-5.472,-5.4721,-5.4723,-5.4847,-5.4849,-5.485,-5.4873,-5.4872,-5.4871,-5.487,-5.4994,-5.4999,-5.5004,0,0,0,0,0,0,0,0,0,0,0,0,0,-5.4604,-5.45,-5.4719,-5.4749,-5.4753,-5.4847,-5.4849,-5.4851,-5.4874,-5.4872,-5.4871,-5.4869,-5.4992,-5.4998,-5.5005,-5.5075,0,0,-5.5024,-5.5027,0,0,0,0,0,0,0,0,-5.4598,-5.4612,-5.4743,-5.4748,-5.4752,-5.4843,-5.4815,-5.4926,-5.4874,-5.4828,-5.487,-5.4868,-5.4945,-5.4955,-5.4983,-5.5081,-5.5086,-5.5025,-5.5029,-5.5031,-5.5033,0,0,0,0,0,0,0,-5.459,-5.4607,-5.477,-5.4745,-5.4751,-5.4756,-5.477,-5.4836,-5.4893,-5.4832,-5.4834,-5.4849,-5.4947,-5.4976,-5.4986,-5.5088,-5.5025,-5.503,-5.5034,-5.5037,-5.5256,-5.5258,0,0,0,0,0,0,-5.4578,-5.4601,-5.4766,-5.4774,-5.467,-5.4761,-5.4777,-5.4815,-5.4893,-5.4903,-5.485,-5.4849,-5.4966,-5.4978,-5.499,-5.5082,-5.5031,-5.5037,-5.5041,-5.5254,-5.5256,-5.5258,0,0,0,0,0,0,-5.4573,-5.4592,-5.4761,-5.4688,-5.471,-5.4767,-5.481,-5.4819,-5.4848,-5.4907,-5.4917,-5.4869,-5.4965,-5.4981,-5.5055,-5.5086,-5.504,-5.5046,-5.5252,-5.5255,-5.5257,-5.5262,0,0,0,0,0,0,-5.4566,-5.4591,-5.4618,-5.4688,-5.4714,-5.4824,-5.4812,-5.4822,-5.4859,-5.486,-5.4927,-5.4937,-5.4965,-5.5046,-5.5062,-5.5094,-5.5051,-5.5249,-5.5253,-5.5256,-5.5259,-5.5265,-5.5269,0,0,0,0,0,-5.4558,-5.4612,-5.4619,-5.4639,-5.4749,-5.4826,-5.484,-5.4873,-5.4861,-5.489,-5.4929,-5.4935,-5.508,-5.5053,-5.5071,-5.5106,-5.5247,-5.5252,-5.5256,-5.5257,-5.5264,-5.5269,0,0,0,0,0,0,-5.454,-5.4621,-5.463,-5.4708,-5.4761,-5.483,-5.4866,-5.4878,-5.4933,-5.4931,-5.4968,-5.4983,-5.5057,-5.5088,-5.5057,-5.5181,-5.5163,-5.5171,-5.5157,-5.5164,-5.5169,-5.516,-5.5056,0,0,0,0,0,-5.4545,-5.4602,-5.4669,-5.4732,-5.4758,-5.4808,-5.4842,-5.4864,-5.4918,-5.494,-5.4984,-5.5035,-5.5094,-5.513,-5.5186,-5.5264,-5.5281,-5.5297,-5.5302,-5.5306,-5.5313,-5.5361,-5.537,-5.5273,-5.5273,-5.5273,0,0,-5.4556,-5.4608,-5.464,-5.473,-5.4772,-5.4831,-5.4826,-5.4886,-5.493,-5.4948,-5.5023,-5.5057,-5.5117,-5.5195,-5.5232,-5.5224,-5.5344,-5.5312,-5.5314,-5.532,-5.5367,-5.5376,-5.5384,-5.5276,-5.5275,-5.5275,0,0,-5.4606,-5.465,-5.4709,-5.4754,-5.482,-5.4854,-5.4868,-5.4937,-5.4962,-5.5038,-5.5055,-5.5106,-5.5204,-5.5248,-5.5283,-5.5356,-5.5365,-5.5373,-5.5399,-5.5445,-5.5453,-5.546,-5.5489,-5.5499,-5.5379,-5.5379,-5.5379,0,-5.4611,-5.47,-5.4737,-5.4799,-5.4839,-5.4862,-5.4923,-5.4964,-5.5044,-5.5071,-5.5062,-5.5189,-5.5231,-5.5322,-5.534,-5.5367,-5.5386,-5.5365,-5.5449,-5.5457,-5.5464,-5.5492,-5.5503,-5.538,-5.538,-5.538,-5.538,0,-5.4704,-5.4766,-5.4806,-5.4887,-5.4932,-5.4992,-5.5039,-5.5079,-5.5098,-5.5133,-5.5212,-5.5264,-5.5333,-5.5356,-5.5373,-5.5451,-5.5445,-5.5442,-5.5425,-5.5473,-5.5501,-5.5511,-5.5381,-5.5381,-5.5381,-5.5381,0,0,-5.4743,-5.4849,-5.4863,-5.4902,-5.498,-5.5028,-5.5091,-5.5162,-5.5198,-5.5253,-5.5308,-5.5393,-5.5393,-5.5433,-5.5456,-5.5496,-5.5555,-5.5489,-5.5491,-5.5502,-5.5648,-5.5651,-5.5663,-5.5562,-5.5564,-5.5566,-5.5644,0,-5.4805,-5.492,-5.4958,-5.5054,-5.5113,-5.5139,-5.5194,-5.5248,-5.5283,-5.5339,-5.5377,-5.5438,-5.5431,-5.5457,-5.5498,-5.5539,-5.5585,-5.5534,-5.5614,-5.5617,-5.56,-5.5676,-5.5679,-5.575,-5.5655,-5.5656,-5.5658,0,-5.4891,-5.4953,-5.5056,-5.5131,-5.5157,-5.5206,-5.5277,-5.5329,-5.5392,-5.5415,-5.5463,-5.5484,-5.5552,-5.5531,-5.5626,-5.5591,-5.5626,-5.5652,-5.5656,-5.5665,-5.5641,-5.569,-5.5773,-5.5784,-5.5674,-5.5673,-5.5672,0,-5.4913,-5.5021,-5.5099,-5.5131,-5.5219,-5.5255,-5.5293,-5.5354,-5.5396,-5.5457,-5.5485,-5.5552,-5.5589,-5.5641,-5.568,-5.5661,-5.5774,-5.5755,-5.5796,-5.5795,-5.5818,-5.5817,-5.591,-5.5838,-5.5838,-5.5838,-5.5837,0,-5.4978,-5.5041,-5.5111,-5.5158,-5.523,-5.5273,-5.5343,-5.5383,-5.5438,-5.5494,-5.5519,-5.5571,-5.5619,-5.5677,-5.5708,-5.5785,-5.58,-5.5821,-5.5829,-5.582,-5.5818,-5.5845,-5.5841,-5.5841,-5.584,-5.5839,-5.5839,0,-5.5015,-5.5064,-5.515,-5.5229,-5.5251,-5.53,-5.5368,-5.5415,-5.5454,-5.5525,-5.5544,-5.5603,-5.5674,-5.5718,-5.5806,-5.5828,-5.5913,-5.5917,-5.5892,-5.5896,-5.5936,-5.5933,-5.6051,-5.607,-5.5983,-5.5984,-5.5984,0,-5.5054,-5.5104,-5.519,-5.5231,-5.5271,-5.5335,-5.538,-5.5425,-5.547,-5.5549,-5.5587,-5.5661,-5.5722,-5.5834,-5.5884,-5.5953,-5.5961,-5.5998,-5.5971,-5.5963,-5.5965,-5.5963,-5.597,-5.6003,-5.6003,-5.6004,-5.6004,0,-5.512,-5.5143,-5.5207,-5.5282,-5.5335,-5.5394,-5.5454,-5.5485,-5.5541,-5.5591,-5.5666,-5.5714,-5.5807,-5.588,-5.5955,-5.5994,-5.601,-5.6013,-5.6027,-5.6019,-5.6003,-5.6015,-5.5907,-5.601,-5.6009,-5.6009,-5.6008,-5.6008,-5.5161,-5.5208,-5.5278,-5.535,-5.5401,-5.5457,-5.5507,-5.5554,-5.5618,-5.57,-5.5722,-5.5801,-5.5866,-5.5969,-5.601,-5.6073,-5.6068,-5.6086,-5.6091,-5.6096,-5.6099,-5.5993,-5.6086,-5.6086,-5.6086,-5.6086,-5.6086,0,-5.5231,-5.5278,-5.5344,-5.5429,-5.5486,-5.5499,-5.5567,-5.5614,-5.5684,-5.5744,-5.5806,-5.5894,-5.5966,-5.6024,-5.6099,-5.6138,-5.6148,-5.6157,-5.6155,-5.6164,-5.6097,-5.6079,-5.6148,-5.6148,-5.6148,-5.6148,-5.6148,-5.6148,-5.5274,-5.5356,-5.5388,-5.5497,-5.5544,-5.5623,-5.5662,-5.5715,-5.5764,-5.5862,-5.5924,-5.5963,-5.6024,-5.6104,-5.6172,-5.6187,-5.6214,-5.6222,-5.6239,-5.6175,-5.6168,-5.6162,-5.6146,-5.6227,-5.6227,-5.6302,-5.6303,-5.6303]}]]